TimeCET,TemperatureF,Dew PointF,Humidity,Sea Level PressureIn,VisibilityMPH,Wind Direction,Wind SpeedMPH,Gust SpeedMPH,PrecipitationIn,Events,Conditions,WindDirDegrees,DateUTC
12:15 AM,41.0,30.2,65,30.45,-9999.0,NE,15.7,-,N/A,,Clear,40,2012-11-13 23:15:00
12:45 AM,41.0,30.2,65,30.45,-9999.0,NE,15.7,29.1,N/A,,Clear,40,2012-11-13 23:45:00
1:15 AM,41.0,30.2,65,30.45,-9999.0,NNE,13.4,-,N/A,,Clear,30,2012-11-14 00:15:00
1:45 AM,39.2,30.2,70,30.45,-9999.0,NNE,11.2,-,N/A,,Clear,30,2012-11-14 00:45:00
2:15 AM,39.2,28.4,65,30.45,-9999.0,NNE,13.4,-,N/A,,Clear,30,2012-11-14 01:15:00
2:45 AM,39.2,28.4,65,30.45,-9999.0,NNE,13.4,-,N/A,,Clear,30,2012-11-14 01:45:00
3:15 AM,39.2,28.4,65,30.45,-9999.0,NNE,11.2,-,N/A,,Clear,20,2012-11-14 02:15:00
3:45 AM,37.4,28.4,70,30.45,-9999.0,NNE,8.9,-,N/A,,Clear,20,2012-11-14 02:45:00
4:15 AM,37.4,28.4,70,30.45,-9999.0,North,6.7,-,N/A,,Clear,10,2012-11-14 03:15:00
4:45 AM,35.6,30.2,81,30.45,-9999.0,North,6.7,-,N/A,,Clear,360,2012-11-14 03:45:00
5:15 AM,35.6,28.4,75,30.45,-9999.0,North,6.7,-,N/A,,Clear,350,2012-11-14 04:15:00
5:45 AM,-9999,-9999,N/A,-9999,6.2,North,6.7,-,N/A,,Clear,10,2012-11-14 04:45:00
6:15 AM,35.6,28.4,75,30.45,6.2,North,6.7,-,N/A,,Scattered Clouds,350,2012-11-14 05:15:00
6:45 AM,37.4,28.4,70,30.45,6.2,North,6.7,-,N/A,,Mostly Cloudy,350,2012-11-14 05:45:00
7:15 AM,37.4,30.2,75,30.45,-9999.0,North,8.9,-,N/A,,Clear,350,2012-11-14 06:15:00
7:45 AM,39.2,30.2,70,30.48,6.2,North,8.9,-,N/A,,Mostly Cloudy,350,2012-11-14 06:45:00
8:15 AM,39.2,30.2,70,30.48,6.2,North,8.9,-,N/A,,Mostly Cloudy,10,2012-11-14 07:15:00
8:45 AM,-9999,-9999,N/A,-9999,6.2,NNE,11.2,-,N/A,,Mostly Cloudy,30,2012-11-14 07:45:00
9:15 AM,41.0,32.0,70,30.48,6.2,North,11.2,-,N/A,,Mostly Cloudy,10,2012-11-14 08:15:00
9:45 AM,42.8,32.0,66,30.48,6.2,NNE,8.9,-,N/A,,Mostly Cloudy,20,2012-11-14 08:45:00
10:15 AM,44.6,32.0,61,30.48,6.2,NE,13.4,-,N/A,,Mostly Cloudy,40,2012-11-14 09:15:00
10:45 AM,46.4,33.8,62,30.45,6.2,NNE,13.4,-,N/A,,Mostly Cloudy,30,2012-11-14 09:45:00
11:15 AM,46.4,33.8,62,30.45,6.2,NE,11.2,-,N/A,,Mostly Cloudy,40,2012-11-14 10:15:00
11:45 AM,-9999,-9999,N/A,-9999,6.2,NNE,11.2,-,N/A,,Mostly Cloudy,30,2012-11-14 10:45:00
12:15 PM,48.2,33.8,58,30.45,6.2,NE,11.2,-,N/A,,Mostly Cloudy,50,2012-11-14 11:15:00
12:45 PM,48.2,35.6,62,30.45,6.2,NE,11.2,-,N/A,,Mostly Cloudy,40,2012-11-14 11:45:00
1:15 PM,48.2,35.6,62,30.42,6.2,NE,8.9,-,N/A,,Mostly Cloudy,50,2012-11-14 12:15:00
1:45 PM,48.2,37.4,66,30.42,6.2,NE,8.9,-,N/A,,Mostly Cloudy,50,2012-11-14 12:45:00
2:15 PM,48.2,37.4,66,30.42,6.2,ENE,8.9,-,N/A,,Mostly Cloudy,60,2012-11-14 13:15:00
2:45 PM,48.2,37.4,66,30.42,6.2,NE,8.9,-,N/A,,Mostly Cloudy,50,2012-11-14 13:45:00
3:15 PM,48.2,39.2,71,30.42,6.2,ENE,6.7,-,N/A,,Mostly Cloudy,60,2012-11-14 14:15:00
3:45 PM,46.4,39.2,76,30.42,6.2,ENE,6.7,-,N/A,,Mostly Cloudy,70,2012-11-14 14:45:00
4:15 PM,46.4,39.2,76,30.42,-9999.0,East,6.7,-,N/A,,Clear,100,2012-11-14 15:15:00
4:45 PM,46.4,39.2,76,30.42,-9999.0,East,4.5,-,N/A,,Clear,100,2012-11-14 15:45:00
5:15 PM,44.6,39.2,81,30.42,-9999.0,East,2.2,-,N/A,,Clear,80,2012-11-14 16:15:00
5:45 PM,-9999,-9999,N/A,-9999,6.2,ENE,6.7,-,N/A,,Clear,60,2012-11-14 16:45:00
6:15 PM,42.8,39.2,87,30.45,-9999.0,SSE,4.5,-,N/A,,Clear,160,2012-11-14 17:15:00
6:45 PM,42.8,39.2,87,30.45,-9999.0,SSE,4.5,-,N/A,,Clear,150,2012-11-14 17:45:00
7:15 PM,42.8,39.2,87,30.42,-9999.0,SSE,6.7,-,N/A,,Clear,160,2012-11-14 18:15:00
7:45 PM,42.8,39.2,87,30.45,-9999.0,SSE,4.5,-,N/A,,Clear,150,2012-11-14 18:45:00
8:15 PM,42.8,39.2,87,30.45,-9999.0,South,6.7,-,N/A,,Clear,180,2012-11-14 19:15:00
8:45 PM,-9999,-9999,N/A,-9999,1.9,Variable,4.5,-,N/A,Fog,Fog,0,2012-11-14 19:45:00
9:15 PM,41.0,39.2,93,30.45,5.0,South,2.2,-,N/A,,Unknown,180,2012-11-14 20:15:00
9:45 PM,-9999,-9999,N/A,-9999,3.1,Variable,4.5,-,N/A,Fog,Mostly Cloudy,0,2012-11-14 20:45:00
10:15 PM,41.0,37.4,87,30.45,5.0,SSE,2.2,-,N/A,,Unknown,160,2012-11-14 21:15:00
10:45 PM,41.0,39.2,93,30.45,5.0,South,2.2,-,N/A,,Unknown,180,2012-11-14 21:45:00
11:15 PM,41.0,37.4,87,30.45,5.0,Calm,Calm,-,N/A,,Unknown,0,2012-11-14 22:15:00
11:45 PM,-9999,-9999,N/A,-9999,0.9,North,-9999.0,-,N/A,Fog,Mostly Cloudy,0,2012-11-14 22:45:00